Regional Weather Roundup
Issued by NWS

Home | Current Version | Previous Version | Text Only | Print | Product List | Glossary Off
Versions: 1 2 3 4 5 6 7 8 9 10 11 12 13 14 15 16 17 18 19 20 21 22 23 24 25 26 27 28 29 30 31 32 33 34 35 36 37 38 39 40 41 42 43 44 45 46 47 48 49 50

000
ASUS43 KLSX 040110
RWRMO

WEATHER SUMMARY FOR MISSOURI
NATIONAL WEATHER SERVICE SPRINGFIELD MO
800 PM CDT MON AUG 03 2015

NOTE: "FAIR" INDICATES FEW OR NO CLOUDS BELOW 12,000 FEET WITH NO
       SIGNIFICANT WEATHER AND/OR OBSTRUCTIONS TO VISIBILITY.
       CURRENT SKY AND/OR WEATHER CONDITIONS ARE NOT AVAILABLE FOR
       CHILLICOTHE AND FARMINGTON.

MOZ001>031-035>038-043-044-053-054-040200-
...NORTHERN AND WESTERN MISSOURI...

CITY           SKY/WX    TMP DP  RH WIND       PRES   REMARKS
KANSAS CTY INT MOCLDY    81  70  69 NE10      29.91S
KANSAS C DTWN  CLEAR     83  70  64 E12       29.89R
LEE`S SUMMIT   CLEAR     83  72  69 E8        29.91R
ST JOSEPH      PTCLDY    78  69  73 E8        29.91S
CHILLICOTHE      N/A     79  69  71 CALM      29.94R
KIRKSVILLE     PTCLDY    74  68  81 CALM      29.95R

$$
MOZ066>068-077>081-088>096-101>105-040200-
...SOUTHWEST MISSOURI...

CITY           SKY/WX    TMP DP  RH WIND       PRES   REMARKS
SPRINGFIELD    PTCLDY    82  68  62 SW6       29.94S
JOPLIN         PTCLDY    87  65  47 SW9       29.94R

$$
MOZ032>034-039>042-045>050-055>058-069>072-040200-
...CENTRAL MISSOURI...

CITY           SKY/WX    TMP DP  RH WIND       PRES   REMARKS
COLUMBIA       CLEAR     83  69  62 NW5       29.92R
JEFFERSON CITY CLEAR     85  71  63 CALM      29.89S HX  90
ROLLA          CLEAR     80  72  76 S3        29.92S
SEDALIA        PTCLDY    83  73  72 E3        29.92R
WHITEMAN AFB   PTCLDY    83  73  72 E2        29.90R
WARRENSBURG    PTCLDY    81  72  74 NE3       29.90R
OSAGE BEACH    PTCLDY    82  72  69 SE3       29.92S

$$
MOZ051-052-059>065-040200-
...EAST CENTRAL MISSOURI...

CITY           SKY/WX    TMP DP  RH WIND       PRES   REMARKS
ST LOUIS INTL  MOCLDY    84  67  56 N3        29.90S
SPIRIT OF STL  CLEAR     80  74  81 CALM      29.89R
ST CHARLES     CLEAR     82  70  66 N5        29.88S

$$
MOZ072>076-082>087-097>100-106>115-040200-
...SOUTH CENTRAL AND SOUTHEAST MISSOURI...

CITY           SKY/WX    TMP DP  RH WIND       PRES   REMARKS
CAPE GIRARDEAU CLEAR     82  76  81 S3        29.89S
FARMINGTON     CLEAR     82  72  69 CALM      29.96S
POPLAR BLUFF   CLEAR     84  78  82 CALM      29.89R HX  95
WEST PLAINS    PTCLDY    84  70  62 CALM      29.97R

$$


USA.gov is the U.S. government's official web portal to all federal, state and local government web resources and services.